Location: Aufkirchen
(47.9603°N, 11.3653°E)
Time: 04:09:22
(UTC+01:00)

Vanguard 3 - Pass Details

Date: 02 December 2020
Orbit: 508 x 3262 km, 33.3° (Epoch: 23 January)

Event Time Altitude Azimuth Distance (km) Brightness Sun altitude
Rises 22:43:35 0° 237° (WSW) 2,608 - -59.5°
Reaches altitude 10° 22:47:58 10° 187° (S) 1,905 - -60.0°
Maximum altitude 22:48:15 10° 183° (S) 1,920 - -60.0°
Drops below altitude 10° 22:48:31 10° 180° (S) 1,942 - -60.0°
Sets 22:53:58 0° 134° (SE) 3,359 - -60.6°
